Location: Saint-Hippolyte
(43.6394°N, 4.7559°E)
Time: 14:39:31
(UTC+00:00)

Cosmos 2297 Rocket - Pass Details

Date: 24 October 2020
Orbit: 838 x 845 km, 71.0° (Epoch: 24 November)

Event Time Altitude Azimuth Distance (km) Brightness Sun altitude
Rises 17:03:10 0° 344° (NNW) 3,414 5.4 -4.4°
Reaches altitude 10° 17:06:18 10° 1° (N) 2,475 4.5 -5.0°
Maximum altitude 17:10:26 20° 48° (NE) 1,856 3.5 -5.7°
Drops below altitude 10° 17:14:32 10° 95° (E) 2,465 4.0 -6.4°
Enters shadow 17:16:06 - 105° (ESE) 2,911 4.4 -6.7°
